[[{"header":{"parameterUnit":"m.s-1","parameterCategory":1,"la1":30.2991,"la2":30.254,"lo1":-89.0895,"lo2":-89.0444,"dy":0.0017,"dx":0.0017,"nx":28,"ny":28,"refTime":"2025-07-29T21:00:00:Z","depth":0,"parameterNumber":2,"parameterNumberName":"U-component_of_WINDS"},"data":[0,0,0,0,0,0,0,0,0,0,0,0,0,0,0,0,0,0,0,0,0,0,0,0,0,0,0,0,0,0,0,0,0,0,0,0,0,0,0,0,0,0,0,0,0,0,0,0,0,0,0,0,0,0,0,0,0,0,1.5109,1.511,0,1.5259,1.5261,1.5263,1.5279,1.5278,1.5276,1.5275,1.544,1.5445,1.5451,0,0,0,0,0,0,0,0,0,0,0,0,0,1.4846,1.485,1.5108,1.511,1.5112,1.5259,1.5261,1.5263,1.528,1.5278,1.5276,1.5274,1.5438,1.5445,1.5452,0,0,0,0,0,0,0,0,0,0,0,0,0,1.4975,1.4852,1.5108,1.5138,1.5142,1.5258,1.5261,1.5264,1.528,1.5278,1.5275,1.5273,1.5435,1.5444,1.5453,1.5553,0,0,1.5479,1.5483,0,0,0,0,0,0,0,0,1.4967,1.4984,1.5132,1.5136,1.5141,1.5248,1.5229,1.5361,1.5281,1.5228,1.5275,1.5272,1.5378,1.5392,1.5425,1.5561,1.5568,1.548,1.5485,1.5489,1.5492,0,0,0,0,0,0,0,1.4958,1.4978,1.5168,1.5134,1.514,1.5147,1.5163,1.5254,1.5315,1.5232,1.5234,1.5251,1.5381,1.5417,1.5429,1.557,1.548,1.5488,1.5493,1.5496,1.5797,1.58,0,0,0,0,0,0,1.4942,1.497,1.5164,1.5173,1.5046,1.5154,1.5171,1.5216,1.5314,1.5326,1.5253,1.5251,1.5403,1.5419,1.5435,1.556,1.5489,1.5497,1.5502,1.5795,1.5798,1.5801,0,0,0,0,0,0,1.4937,1.4959,1.5158,1.5072,1.5098,1.5161,1.5211,1.522,1.5256,1.5329,1.5341,1.5278,1.5402,1.5423,1.5523,1.5566,1.5501,1.5509,1.5791,1.5796,1.5799,1.5809,0,0,0,0,0,0,1.4929,1.4957,1.4993,1.5073,1.5102,1.524,1.5213,1.5225,1.527,1.527,1.5356,1.5368,1.5402,1.551,1.5532,1.5577,1.5516,1.5788,1.5793,1.5798,1.5806,1.5813,1.582,0,0,0,0,0,1.492,1.4992,1.4995,1.5018,1.5148,1.5242,1.5259,1.5294,1.5273,1.5312,1.5359,1.5365,1.5557,1.552,1.5545,1.5593,1.5785,1.5792,1.5798,1.5802,1.5812,1.582,0,0,0,0,0,0,1.492,1.5003,1.5007,1.5107,1.5167,1.5244,1.5294,1.5302,1.5372,1.5369,1.5412,1.5431,1.553,1.5572,1.5529,1.5696,1.567,1.5681,1.5665,1.5675,1.5682,1.567,1.5523,0,0,0,0,0,1.4931,1.4997,1.5067,1.5149,1.5178,1.5231,1.5273,1.5294,1.5359,1.5386,1.544,1.5506,1.5581,1.563,1.5704,1.5812,1.5832,1.5857,1.5864,1.587,1.588,1.5942,1.5954,1.5821,1.5821,1.5821,0,0,1.4956,1.501,1.5049,1.515,1.5199,1.527,1.5252,1.5328,1.5381,1.5399,1.5495,1.5538,1.5615,1.5719,1.5768,1.5757,1.5921,1.5878,1.5882,1.5889,1.5949,1.5962,1.5973,1.5825,1.5825,1.5824,0,0,1.5037,1.5083,1.5156,1.5205,1.5278,1.5312,1.533,1.5407,1.5434,1.5531,1.5546,1.5613,1.5741,1.5795,1.584,1.5942,1.5951,1.5965,1.6003,1.6063,1.6073,1.6083,1.6121,1.6134,1.5974,1.5974,1.5974,0,1.506,1.5163,1.5194,1.5268,1.5313,1.5329,1.5405,1.5452,1.5547,1.5579,1.5565,1.5726,1.5779,1.5897,1.5922,1.5957,1.5981,1.5955,1.6069,1.6079,1.6088,1.6125,1.6139,1.5976,1.5975,1.5975,1.5975,0,1.5188,1.5259,1.531,1.5397,1.5448,1.5524,1.5569,1.5618,1.5635,1.5672,1.5772,1.5836,1.5923,1.5953,1.5971,1.6074,1.6065,1.6059,1.6034,1.6101,1.6137,1.6151,1.5977,1.5977,1.5976,1.5976,0,0,1.5274,1.5376,1.5394,1.5434,1.5516,1.5574,1.5651,1.5733,1.5774,1.584,1.5907,1.6016,1.601,1.6061,1.6086,1.6138,1.6217,1.6127,1.6129,1.6142,1.6337,1.6341,1.6356,1.6223,1.6226,1.6228,1.633,0,1.5365,1.5498,1.5529,1.5645,1.5713,1.5729,1.5796,1.5856,1.5893,1.5959,1.6002,1.6078,1.6064,1.6095,1.6147,1.6196,1.6257,1.6189,1.629,1.6293,1.627,1.6374,1.6379,1.6473,1.6344,1.6347,1.6348,0,1.5489,1.5553,1.5675,1.5748,1.5778,1.5837,1.5915,1.5976,1.6046,1.6069,1.6125,1.6145,1.6229,1.6199,1.6318,1.6271,1.6314,1.6344,1.6349,1.6361,1.6325,1.639,1.6503,1.6518,1.637,1.6368,1.6367,0,1.554,1.5658,1.5746,1.578,1.5867,1.5909,1.5948,1.6014,1.6061,1.6131,1.6163,1.6242,1.6286,1.6349,1.6391,1.6365,1.6507,1.648,1.6532,1.6531,1.6562,1.656,1.6685,1.6588,1.6588,1.6588,1.6587,0,1.5639,1.5714,1.577,1.5825,1.5909,1.5945,1.6029,1.6069,1.6128,1.6193,1.6214,1.6275,1.6326,1.6396,1.643,1.6524,1.6544,1.6568,1.6576,1.6566,1.6563,1.6596,1.6591,1.6591,1.6591,1.659,1.6589,0,1.5712,1.5752,1.5849,1.5923,1.5944,1.6003,1.6068,1.6124,1.6161,1.6243,1.6265,1.6325,1.6408,1.6455,1.6561,1.6584,1.6689,1.6694,1.6664,1.6668,1.6718,1.6713,1.6869,1.6893,1.6779,1.678,1.6781,0,1.5772,1.5829,1.5908,1.5951,1.599,1.606,1.6107,1.6146,1.6196,1.6279,1.6325,1.6408,1.6477,1.6609,1.6665,1.6746,1.6754,1.6803,1.6767,1.6755,1.6757,1.6753,1.676,1.681,1.6811,1.6812,1.6812,0,1.5876,1.5893,1.5959,1.6032,1.6087,1.6148,1.6209,1.6244,1.6293,1.6349,1.6431,1.6484,1.6591,1.6674,1.676,1.6805,1.6819,1.6823,1.684,1.6831,1.6812,1.6824,1.6683,1.682,1.6819,1.6818,1.6818,1.6818,1.5946,1.5998,1.6061,1.6134,1.6183,1.6239,1.6294,1.6337,1.6406,1.6493,1.6512,1.6601,1.6671,1.6786,1.6833,1.6905,1.6897,1.6921,1.6927,1.6933,1.6935,1.6799,1.6921,1.6921,1.6921,1.6921,1.6921,0,1.6052,1.6093,1.616,1.6242,1.63,1.6303,1.6371,1.642,1.6496,1.6558,1.6624,1.6721,1.6802,1.6863,1.6948,1.6994,1.7002,1.7015,1.7013,1.7023,1.6937,1.6914,1.7006,1.7006,1.7006,1.7006,1.7006,1.7006,1.6114,1.6202,1.6226,1.634,1.6382,1.6465,1.6503,1.6556,1.6606,1.6711,1.6777,1.6815,1.6878,1.6967,1.7043,1.7059,1.709,1.7102,1.712,1.7038,1.7029,1.702,1.6999,1.7108,1.7108,1.72,1.7201,1.7202]},{"header":{"parameterUnit":"m.s-1","parameterCategory":1,"la1":30.2991,"la2":30.254,"lo1":-89.0895,"lo2":-89.0444,"dy":0.0017,"dx":0.0017,"nx":28,"ny":28,"refTime":"2025-07-29T21:00:00:Z","depth":0,"parameterNumber":3,"parameterNumberName":"V-component_of_WINDS"},"data":[0,0,0,0,0,0,0,0,0,0,0,0,0,0,0,0,0,0,0,0,0,0,0,0,0,0,0,0,0,0,0,0,0,0,0,0,0,0,0,0,0,0,0,0,0,0,0,0,0,0,0,0,0,0,0,0,0,0,1.635,1.6352,0,1.6533,1.6535,1.6537,1.6531,1.6528,1.6525,1.6523,1.671,1.6717,1.6724,0,0,0,0,0,0,0,0,0,0,0,0,0,1.5994,1.6,1.635,1.6353,1.6355,1.6533,1.6535,1.6538,1.6531,1.6528,1.6525,1.6522,1.6708,1.6716,1.6725,0,0,0,0,0,0,0,0,0,0,0,0,0,1.616,1.6002,1.635,1.6373,1.6377,1.6532,1.6535,1.6538,1.6532,1.6528,1.6524,1.652,1.6705,1.6715,1.6726,1.6871,0,0,1.676,1.6765,0,0,0,0,0,0,0,0,1.615,1.6173,1.6367,1.6372,1.6376,1.6505,1.6478,1.665,1.6533,1.6473,1.6523,1.6519,1.6645,1.6661,1.6703,1.688,1.6888,1.6761,1.6768,1.6772,1.6776,0,0,0,0,0,0,0,1.6139,1.6165,1.6423,1.637,1.6376,1.6373,1.6393,1.6511,1.6578,1.6478,1.6478,1.6499,1.6647,1.6693,1.6708,1.689,1.6761,1.677,1.6777,1.6782,1.7192,1.7196,0,0,0,0,0,0,1.6122,1.6155,1.6417,1.6428,1.6251,1.6383,1.6405,1.6468,1.6577,1.659,1.6503,1.6498,1.6676,1.6695,1.6714,1.689,1.6772,1.6783,1.6789,1.7188,1.7193,1.7198,0,0,0,0,0,0,1.6115,1.6146,1.6409,1.6292,1.6325,1.6393,1.6464,1.6473,1.6519,1.6596,1.6607,1.6537,1.6673,1.6699,1.6831,1.6897,1.6788,1.6798,1.7183,1.7189,1.7195,1.7244,0,0,0,0,0,0,1.6105,1.6143,1.62,1.6293,1.6331,1.6525,1.6468,1.648,1.6538,1.6535,1.6631,1.6644,1.6672,1.6815,1.6842,1.691,1.6806,1.7177,1.7186,1.7193,1.7237,1.7251,1.7263,0,0,0,0,0,1.6092,1.6206,1.6203,1.6234,1.6403,1.6529,1.655,1.6581,1.6544,1.6601,1.6649,1.6641,1.6884,1.6829,1.686,1.6931,1.7173,1.7183,1.7193,1.7231,1.7248,1.7263,0,0,0,0,0,0,1.612,1.6219,1.6216,1.6364,1.6438,1.6527,1.66,1.6599,1.6685,1.6678,1.6712,1.6734,1.6867,1.6912,1.6848,1.7075,1.7024,1.704,1.7042,1.7059,1.7072,1.706,1.6815,0,0,0,0,0,1.6143,1.6236,1.6318,1.6441,1.6478,1.6532,1.6588,1.6605,1.6683,1.6714,1.6772,1.6848,1.6941,1.7002,1.7092,1.7241,1.7262,1.7306,1.7319,1.7329,1.7344,1.7425,1.7445,1.7229,1.7229,1.7229,0,0,1.6192,1.6258,1.6315,1.6448,1.6507,1.6603,1.6559,1.6662,1.6734,1.673,1.6859,1.6904,1.699,1.7131,1.7196,1.7173,1.7407,1.7342,1.7349,1.7359,1.7437,1.7457,1.7476,1.7236,1.7235,1.7234,0,0,1.6332,1.6391,1.6499,1.6559,1.6648,1.6683,1.6709,1.6798,1.6827,1.6957,1.6956,1.704,1.72,1.7262,1.7314,1.7472,1.7467,1.75,1.7571,1.7649,1.7666,1.7682,1.7739,1.7759,1.7513,1.7514,1.7514,0,1.6382,1.6527,1.6555,1.6659,1.6717,1.6716,1.6826,1.6882,1.6996,1.7036,1.7007,1.7207,1.7265,1.742,1.7458,1.75,1.7531,1.7491,1.7662,1.7677,1.7692,1.7747,1.7768,1.7517,1.7517,1.7516,1.7516,0,1.6584,1.6684,1.6761,1.6871,1.6937,1.7043,1.7086,1.715,1.7159,1.7197,1.7328,1.7397,1.75,1.7538,1.7549,1.7694,1.7677,1.7654,1.7604,1.7716,1.7768,1.7789,1.7522,1.7521,1.752,1.7519,0,0,1.6751,1.6872,1.69,1.6949,1.7046,1.7124,1.7228,1.7329,1.7383,1.746,1.7549,1.7682,1.7662,1.7721,1.7738,1.7807,1.7927,1.7776,1.7778,1.7803,1.8092,1.811,1.8134,1.7923,1.7927,1.7931,1.8085,0,1.6901,1.7089,1.7115,1.728,1.7372,1.737,1.7461,1.753,1.7567,1.765,1.7689,1.7784,1.7749,1.7785,1.7852,1.7899,1.7986,1.7887,1.8007,1.8011,1.7988,1.8161,1.8181,1.8323,1.8105,1.8109,1.8111,0,1.7103,1.7186,1.736,1.7442,1.7482,1.7563,1.7657,1.7736,1.7812,1.7834,1.7898,1.7906,1.8013,1.7955,1.8103,1.8035,1.8085,1.8114,1.812,1.8135,1.807,1.8182,1.8369,1.8391,1.8143,1.8141,1.8138,0,1.7209,1.7362,1.7486,1.7528,1.7627,1.7684,1.7728,1.7801,1.7859,1.7939,1.7977,1.8069,1.812,1.8191,1.8223,1.8177,1.8369,1.8313,1.839,1.8389,1.8434,1.8431,1.8634,1.8461,1.8461,1.8461,1.846,0,1.7375,1.7482,1.7535,1.7611,1.773,1.7758,1.7875,1.7916,1.798,1.8064,1.8067,1.8145,1.8182,1.8265,1.829,1.8409,1.8431,1.8452,1.8458,1.8453,1.8451,1.8489,1.848,1.8466,1.8465,1.8464,1.8463,0,1.7515,1.7554,1.7689,1.777,1.7793,1.7877,1.7947,1.802,1.8054,1.816,1.8186,1.824,1.8338,1.8376,1.8496,1.8513,1.865,1.8647,1.8625,1.8627,1.8702,1.8695,1.8939,1.8972,1.8775,1.8777,1.8778,0,1.762,1.7702,1.7792,1.7848,1.7893,1.7984,1.8042,1.8072,1.8133,1.8224,1.8287,1.8384,1.8464,1.8621,1.867,1.8761,1.8762,1.884,1.8776,1.8768,1.8765,1.8761,1.8769,1.8853,1.8855,1.8857,1.8858,0,1.7804,1.7818,1.7903,1.7994,1.8064,1.8137,1.8208,1.8254,1.8293,1.8361,1.8462,1.8523,1.8644,1.8741,1.8834,1.8878,1.8876,1.8877,1.89,1.8898,1.8883,1.8894,1.866,1.8873,1.8871,1.887,1.887,1.8869,1.7931,1.8003,1.8077,1.8171,1.8226,1.8292,1.8365,1.8407,1.8491,1.8593,1.8604,1.8711,1.8783,1.8907,1.8955,1.9039,1.9018,1.9051,1.906,1.9068,1.9074,1.8866,1.9055,1.9055,1.9055,1.9054,1.9054,0,1.8115,1.8162,1.8247,1.8346,1.8419,1.8408,1.8485,1.8547,1.8642,1.8709,1.8787,1.8901,1.8994,1.9049,1.9142,1.9199,1.9199,1.9222,1.922,1.923,1.9087,1.9058,1.922,1.922,1.922,1.922,1.922,1.922,1.822,1.8342,1.8365,1.8513,1.8559,1.8664,1.8709,1.8769,1.8823,1.895,1.9027,1.9062,1.9124,1.9221,1.9305,1.9319,1.9354,1.9379,1.9391,1.9257,1.924,1.9224,1.9198,1.9386,1.9386,1.9528,1.9529,1.953]}]]